Time,TemperatureF,DewpointF,PressureIn,WindDirection,WindDirectionDegrees,WindSpeedMPH,WindSpeedGustMPH,Humidity,HourlyPrecipIn,Conditions,Clouds,dailyrainin,SoftwareType,DateUTC
2013-06-13 00:05:00,63.6,60.8,29.81,North,7,2.6,6.0,88,0.00,NA,NA,0.81,meteo_script,2013-06-13 05:05:00,
2013-06-13 00:35:00,62.2,59.4,29.82,North,358,2.4,7.0,88,0.00,NA,NA,0.00,meteo_script,2013-06-13 05:35:00,
2013-06-13 01:05:00,61.5,58.7,29.82,North,0,1.8,5.0,88,0.00,NA,NA,0.00,meteo_script,2013-06-13 06:05:00,
2013-06-13 01:35:00,60.7,57.7,29.84,North,0,1.4,3.0,87,0.00,NA,NA,0.00,meteo_script,2013-06-13 06:35:00,
2013-06-13 02:05:00,59.9,56.7,29.85,North,0,2.1,4.0,86,0.00,NA,NA,0.00,meteo_script,2013-06-13 07:05:00,
2013-06-13 02:35:00,59.5,56.3,29.86,NNE,15,1.4,3.0,86,0.00,NA,NA,0.00,meteo_script,2013-06-13 07:35:00,
2013-06-13 03:05:00,59.4,55.9,29.88,North,0,1.3,3.0,85,0.00,NA,NA,0.00,meteo_script,2013-06-13 08:05:00,
2013-06-13 03:35:00,59.4,55.9,29.90,North,0,0.5,2.0,85,0.00,NA,NA,0.00,meteo_script,2013-06-13 08:35:00,
2013-06-13 04:05:00,59.3,55.9,29.90,North,0,1.4,2.0,85,0.00,NA,NA,0.00,meteo_script,2013-06-13 09:05:00,
2013-06-13 04:35:00,58.9,55.7,29.91,North,0,1.9,3.0,86,0.00,NA,NA,0.00,meteo_script,2013-06-13 09:35:00,
2013-06-13 05:05:00,58.6,55.2,29.91,North,0,1.2,2.0,85,0.00,NA,NA,0.00,meteo_script,2013-06-13 10:05:00,
2013-06-13 05:35:00,58.4,55.0,29.92,North,0,0.2,2.0,85,0.00,NA,NA,0.00,meteo_script,2013-06-13 10:35:00,
2013-06-13 06:05:00,58.2,54.8,29.95,North,0,1.6,4.0,85,0.00,NA,NA,0.00,meteo_script,2013-06-13 11:05:00,
2013-06-13 06:35:00,58.6,54.9,29.96,North,0,1.9,4.0,84,0.00,NA,NA,0.00,meteo_script,2013-06-13 11:35:00,
2013-06-13 07:05:00,59.4,55.4,29.97,North,0,0.0,0.0,83,0.00,NA,NA,0.00,meteo_script,2013-06-13 12:05:00,
2013-06-13 07:35:00,60.6,55.8,29.97,NNE,15,2.6,4.0,79,0.00,NA,NA,0.00,meteo_script,2013-06-13 12:35:00,
2013-06-13 08:05:00,65.5,58.0,29.99,North,2,2.4,5.0,71,0.00,NA,NA,0.00,meteo_script,2013-06-13 13:05:00,
2013-06-13 08:35:00,68.0,59.2,30.00,NNE,29,2.1,4.0,67,0.00,NA,NA,0.00,meteo_script,2013-06-13 13:35:00,
2013-06-13 09:05:00,67.9,58.4,30.00,North,0,2.3,3.0,64,0.00,NA,NA,0.00,meteo_script,2013-06-13 14:05:00,
2013-06-13 09:35:00,68.8,57.9,30.01,North,3,2.1,6.0,61,0.00,NA,NA,0.00,meteo_script,2013-06-13 14:35:00,
2013-06-13 10:05:00,69.9,58.7,30.02,North,0,1.2,3.0,60,0.00,NA,NA,0.00,meteo_script,2013-06-13 15:05:00,
2013-06-13 10:35:00,71.0,59.5,30.03,North,8,2.7,4.0,59,0.00,NA,NA,0.00,meteo_script,2013-06-13 15:35:00,
2013-06-13 11:05:00,71.9,59.0,30.03,North,0,0.6,2.0,56,0.00,NA,NA,0.00,meteo_script,2013-06-13 16:05:00,
2013-06-13 11:35:00,73.5,59.3,30.04,North,0,2.1,5.0,53,0.00,NA,NA,0.00,meteo_script,2013-06-13 16:35:00,
2013-06-13 12:05:00,74.3,60.3,30.05,ENE,57,2.1,3.0,54,0.00,NA,NA,0.00,meteo_script,2013-06-13 17:05:00,
2013-06-13 12:35:00,74.8,60.3,30.06,NNE,23,2.7,5.0,52,0.00,NA,NA,0.00,meteo_script,2013-06-13 17:35:00,
2013-06-13 13:05:00,75.5,59.4,30.06,NNE,28,3.6,5.0,49,0.00,NA,NA,0.00,meteo_script,2013-06-13 18:05:00,
2013-06-13 13:35:00,76.8,59.9,30.05,West,280,1.3,3.0,47,0.00,NA,NA,0.00,meteo_script,2013-06-13 18:35:00,
2013-06-13 14:05:00,77.4,59.2,30.05,NNW,332,2.6,5.0,45,0.00,NA,NA,0.00,meteo_script,2013-06-13 19:05:00,
2013-06-13 14:35:00,77.2,59.5,30.05,WNW,297,1.4,3.0,46,0.00,NA,NA,0.00,meteo_script,2013-06-13 19:35:00,
2013-06-13 15:05:00,77.4,59.2,30.05,North,356,3.4,5.0,45,0.00,NA,NA,0.00,meteo_script,2013-06-13 20:05:00,
2013-06-13 15:35:00,77.2,59.3,30.06,NNW,348,3.1,5.0,45,0.00,NA,NA,0.00,meteo_script,2013-06-13 20:35:00,
2013-06-13 16:05:00,76.6,57.5,30.06,North,0,3.9,6.0,42,0.00,NA,NA,0.00,meteo_script,2013-06-13 21:05:00,
2013-06-13 16:35:00,77.2,58.1,30.05,NW,321,2.1,6.0,43,0.00,NA,NA,0.00,meteo_script,2013-06-13 21:35:00,
2013-06-13 17:05:00,78.1,59.3,30.06,North,357,3.3,5.0,44,0.00,NA,NA,0.00,meteo_script,2013-06-13 22:05:00,
2013-06-13 17:35:00,75.5,58.2,30.05,North,0,1.8,3.0,46,0.00,NA,NA,0.00,meteo_script,2013-06-13 22:35:00,
2013-06-13 18:05:00,75.1,57.2,30.05,North,358,2.9,5.0,45,0.00,NA,NA,0.00,meteo_script,2013-06-13 23:05:00,
2013-06-13 18:35:00,76.1,57.9,30.05,North,9,3.3,6.0,44,0.00,NA,NA,0.00,meteo_script,2013-06-13 23:35:00,
2013-06-13 19:05:00,75.1,57.2,30.06,NNE,29,2.4,5.0,45,0.00,NA,NA,0.00,meteo_script,2013-06-14 00:05:00,
2013-06-13 19:35:00,74.6,57.9,30.07,NE,41,1.9,4.0,47,0.00,NA,NA,0.00,meteo_script,2013-06-14 00:35:00,
2013-06-13 20:05:00,73.8,58.3,30.09,NE,52,0.7,2.0,50,0.00,NA,NA,0.00,meteo_script,2013-06-14 01:05:00,
2013-06-13 20:35:00,73.0,58.7,30.09,North,0,0.0,0.0,53,0.00,NA,NA,0.00,meteo_script,2013-06-14 01:35:00,
2013-06-13 21:05:00,71.3,58.8,30.10,North,0,0.0,0.0,57,0.00,NA,NA,0.00,meteo_script,2013-06-14 02:05:00,
2013-06-13 21:35:00,70.7,58.5,30.10,North,0,0.0,0.0,57,0.00,NA,NA,0.00,meteo_script,2013-06-14 02:35:00,
2013-06-13 22:05:00,68.9,57.9,30.11,North,0,0.0,0.0,61,0.00,NA,NA,0.00,meteo_script,2013-06-14 03:05:00,
2013-06-13 22:35:00,68.0,57.5,30.10,North,0,0.0,0.0,62,0.00,NA,NA,0.00,meteo_script,2013-06-14 03:35:00,
2013-06-13 23:05:00,66.4,57.6,30.10,North,0,0.0,0.0,67,0.00,NA,NA,0.00,meteo_script,2013-06-14 04:05:00,
2013-06-13 23:35:00,65.8,57.1,30.11,North,0,0.0,0.0,67,0.00,NA,NA,0.00,meteo_script,2013-06-14 04:35:00,